Derby Field
KLOL : now visible

Airfield :











YOU CAN JOIN US ON...

 
LOGIN :

Register | Disclaimer

   EN    FR    IT 

 









Legend :    VFR   Marginal VFR   IFR   Intensive IFR   Very Intensive IFR
Visi :
Ceiling :
>= 8 km
>= 3000ft
5 to 8 km
1000 to 3000 ft
1500m to 5 km
500 to 1000 ft
800 to 1500m
200 to 500 ft
< 800m
< 200 ft
Symbols :   Thunderstorms  Fog  Heavy snow  Heavy precipitations  Wind > 20 kt






- Airport Elevation : 3904 ft


KLOL - Derby Field

CURRENT METAR :
  • 290453Z AUTO 29012KT 10SM SCT110 22/02 A3001 RMK AO2 SLP121 T02170017

EXPIRED METARs :
  • 290353Z AUTO 28011KT 10SM CLR 23/00 A2997 RMK AO2 PK WND 28026/0325 SLP111 T02330000
  • 290253Z AUTO 28019G27KT 10SM CLR 25/M01 A2994 RMK AO2 PK WND 28027/0250 SLP102 T02501011 53008
  • 290153Z AUTO 29016G24KT 10SM CLR 27/M02 A2992 RMK AO2 PK WND 28027/0135 SLP099 T02671017
  • 290053Z AUTO 28018G28KT 10SM CLR 29/M01 A2991 RMK AO2 PK WND 29028/0047 SLP098 T02891011

TAF N/A
KZOA FIR / North America



MET'MAP, your aeronautical weather chart ! - Copyright ORBIFLY December 2007 - Disclaimer

ORBIFLY MET'MAP TEAM :

Programming & Development : Alexandra Zaïnal
Original concept : Baudouin d'Aumeries
Technical & hardware support : Manuel Goepfert
Assistance : Marc-Olivier Méhu




SOURCES & CREDITS :

   NOAA       Earth
Advisory